[[{"header":{"parameterUnit":"m.s-1","parameterCategory":2,"la1":30.2991,"la2":30.254,"lo1":-89.0895,"lo2":-89.0444,"dy":0.0017,"dx":0.0017,"nx":28,"ny":28,"refTime":"2023-10-26T03:00:00:Z","depth":"0","parameterNumber":2,"parameterNumberName":"U-component_of_CURRENTS"},"data":[0,0,0,0,0,0,0,0,0,0,0,0,0,0,0,0,0,0,0,0,0,0,0,0,0,0,0,0,0,0,0,0,0,0,0,0,0,0,0,0,0,0,0,0,0,0,0,0,0,0,0,0,0,0,0,0,0,0,0.1315,0.1315,0,0.1283,0.1283,0.1282,0.1259,0.1259,0.1259,0.1259,0.1226,0.1226,0.1225,0,0,0,0,0,0,0,0,0,0,0,0,0,0.132,0.132,0.1315,0.1315,0.1314,0.1283,0.1283,0.1282,0.1259,0.1259,0.1259,0.1259,0.1227,0.1226,0.1225,0,0,0,0,0,0,0,0,0,0,0,0,0,0.1304,0.132,0.1315,0.1301,0.1299,0.1283,0.1283,0.1282,0.1259,0.1259,0.1259,0.1259,0.1227,0.1226,0.1224,0.1216,0,0,0.122,0.122,0,0,0,0,0,0,0,0,0.1305,0.1304,0.1303,0.1302,0.13,0.1277,0.1272,0.1261,0.1259,0.1273,0.1259,0.1259,0.1245,0.1242,0.1233,0.1215,0.1213,0.122,0.122,0.1219,0.1219,0,0,0,0,0,0,0,0.1306,0.1305,0.13,0.1303,0.1301,0.1284,0.1282,0.127,0.1257,0.1271,0.127,0.127,0.1243,0.1234,0.1232,0.1213,0.122,0.1219,0.1218,0.1218,0.123,0.1231,0,0,0,0,0,0,0.1316,0.1306,0.1301,0.13,0.1305,0.1284,0.1282,0.1283,0.1258,0.1254,0.127,0.1269,0.1237,0.1234,0.1231,0.1249,0.1219,0.1218,0.1217,0.1229,0.123,0.1231,0,0,0,0,0,0,0.1316,0.1316,0.1303,0.1303,0.1301,0.1285,0.1286,0.1282,0.1279,0.1257,0.1253,0.1271,0.1236,0.1233,0.1229,0.1246,0.1217,0.1216,0.1227,0.1229,0.1231,0.1267,0,0,0,0,0,0,0.1317,0.1316,0.1319,0.1304,0.1301,0.13,0.1286,0.1282,0.1279,0.1278,0.1257,0.1253,0.1236,0.1232,0.1228,0.1244,0.1215,0.1226,0.1228,0.123,0.1264,0.1269,0.1274,0,0,0,0,0,0.1317,0.1318,0.1319,0.1319,0.1306,0.1301,0.1297,0.1284,0.128,0.1281,0.1269,0.1254,0.1243,0.1231,0.1227,0.1243,0.1225,0.1228,0.123,0.1262,0.1268,0.1274,0,0,0,0,0,0,0.1314,0.1316,0.1317,0.1317,0.1315,0.1298,0.1294,0.129,0.128,0.1279,0.1259,0.1255,0.1263,0.1249,0.1237,0.1255,0.1235,0.1237,0.1261,0.1267,0.1271,0.1274,0.1214,0,0,0,0,0,0.1319,0.1322,0.1321,0.132,0.1322,0.1311,0.1307,0.1302,0.1292,0.1288,0.1276,0.1268,0.1269,0.1264,0.126,0.1261,0.1267,0.1273,0.1278,0.1282,0.1283,0.131,0.1318,0.1239,0.1239,0.1239,0,0,0.1314,0.1317,0.1317,0.1321,0.1315,0.1316,0.1308,0.1305,0.1307,0.1286,0.1283,0.1283,0.1275,0.1281,0.1284,0.1271,0.131,0.1285,0.1289,0.1288,0.1314,0.1321,0.1328,0.1241,0.1241,0.124,0,0,0.1308,0.1315,0.1317,0.132,0.1322,0.132,0.1324,0.1318,0.1318,0.1318,0.1312,0.1324,0.131,0.1315,0.1315,0.1345,0.1338,0.1346,0.1366,0.1393,0.1399,0.1405,0.1432,0.144,0.1345,0.1345,0.1345,0,0.1303,0.1307,0.1315,0.1319,0.132,0.1325,0.1326,0.1328,0.1322,0.1329,0.1322,0.1334,0.1329,0.1348,0.1361,0.1356,0.1368,0.1342,0.1399,0.1405,0.141,0.1436,0.1445,0.1347,0.1347,0.1347,0.1347,0,0.1298,0.1303,0.1304,0.1314,0.1319,0.132,0.1331,0.134,0.1344,0.1348,0.1371,0.1371,0.1379,0.1388,0.138,0.142,0.1417,0.1405,0.1382,0.142,0.1446,0.1453,0.135,0.1349,0.1349,0.1348,0,0,0.1275,0.1297,0.1295,0.1301,0.1317,0.1318,0.1336,0.1353,0.1367,0.1377,0.1399,0.1414,0.1423,0.1425,0.1428,0.1453,0.1507,0.1445,0.1445,0.1469,0.157,0.1573,0.1581,0.1504,0.1505,0.1506,0.1577,0,0.1265,0.1272,0.1288,0.1292,0.1295,0.1317,0.1334,0.1354,0.1372,0.1398,0.1421,0.1442,0.1435,0.1448,0.1472,0.15,0.1527,0.1489,0.1532,0.1534,0.1529,0.1591,0.147,0.1523,0.1584,0.1586,0.1587,0,0.1247,0.1257,0.1261,0.1286,0.1291,0.13,0.1332,0.1348,0.1394,0.1413,0.1445,0.1463,0.151,0.1495,0.1561,0.1537,0.1557,0.1575,0.1578,0.1571,0.1551,0.1494,0.1535,0.1443,0.1598,0.1597,0.1597,0,0.1215,0.1234,0.1239,0.1244,0.1277,0.1289,0.1309,0.135,0.1372,0.1428,0.1454,0.1503,0.1536,0.157,0.1613,0.1591,0.1685,0.1657,0.1678,0.1678,0.1579,0.1569,0.153,0.1702,0.1702,0.1702,0.1702,0,0.1191,0.1189,0.1225,0.1223,0.1236,0.1269,0.1292,0.1323,0.1376,0.141,0.1459,0.15,0.1557,0.1613,0.1637,0.1695,0.1706,0.1699,0.1703,0.1591,0.1581,0.1498,0.1458,0.1704,0.1704,0.1703,0.1703,0,0.1144,0.1166,0.1172,0.1208,0.1218,0.1225,0.1273,0.1295,0.1353,0.1402,0.1424,0.1513,0.1599,0.1655,0.1729,0.173,0.1707,0.1791,0.1661,0.165,0.1574,0.1541,0.1505,0.1428,0.1826,0.1826,0.1827,0,0.112,0.112,0.1149,0.1155,0.1169,0.1192,0.1211,0.1271,0.1302,0.1408,0.1432,0.1539,0.1599,0.1721,0.1756,0.1813,0.1729,0.1733,0.1669,0.1572,0.1538,0.1482,0.1415,0.1554,0.1552,0.155,0.1549,0,0.1077,0.1089,0.1097,0.1112,0.1127,0.1147,0.1183,0.1202,0.1284,0.1334,0.1416,0.1476,0.1603,0.1629,0.172,0.1728,0.1597,0.1706,0.1625,0.1349,0.1264,0.119,0.1512,0.1536,0.1538,0.1538,0.1539,0.154,0.1044,0.104,0.1057,0.1064,0.1082,0.1099,0.1098,0.115,0.1191,0.1249,0.1348,0.1393,0.1471,0.1586,0.1593,0.1509,0.1535,0.1426,0.1406,0.1369,0.1254,0.1565,0.1584,0.1586,0.1587,0.1588,0.1589,0,0.0997,0.1003,0.1011,0.1017,0.1015,0.1047,0.1075,0.1069,0.1091,0.1152,0.1208,0.1253,0.1267,0.131,0.1296,0.1209,0.1111,0.114,0.0992,0.0948,0.1231,0.1175,0.108,0.108,0.108,0.108,0.108,0.108,0.0975,0.0961,0.0965,0.0946,0.0954,0.0934,0.0937,0.094,0.096,0.0971,0.0983,0.103,0.1088,0.1083,0.0981,0.0933,0.0783,0.0742,0.0747,0.0893,0.0916,0.0938,0.0875,0.0718,0.0718,0.0372,0.0369,0.0367]},{"header":{"parameterUnit":"m.s-1","parameterCategory":2,"la1":30.2991,"la2":30.254,"lo1":-89.0895,"lo2":-89.0444,"dy":0.0017,"dx":0.0017,"nx":28,"ny":28,"refTime":"2023-10-26T03:00:00:Z","depth":"0","parameterNumber":3,"parameterNumberName":"V-component_of_CURRENTS"},"data":[0,0,0,0,0,0,0,0,0,0,0,0,0,0,0,0,0,0,0,0,0,0,0,0,0,0,0,0,0,0,0,0,0,0,0,0,0,0,0,0,0,0,0,0,0,0,0,0,0,0,0,0,0,0,0,0,0,0,-0.0141,-0.0141,0,-0.0155,-0.0155,-0.0155,-0.0164,-0.0164,-0.0165,-0.0165,-0.0197,-0.0198,-0.0199,0,0,0,0,0,0,0,0,0,0,0,0,0,-0.0103,-0.0104,-0.0141,-0.0141,-0.0142,-0.0155,-0.0155,-0.0155,-0.0164,-0.0164,-0.0165,-0.0165,-0.0197,-0.0198,-0.0199,0,0,0,0,0,0,0,0,0,0,0,0,0,-0.0118,-0.0104,-0.0141,-0.0148,-0.0149,-0.0155,-0.0155,-0.0155,-0.0164,-0.0164,-0.0165,-0.0165,-0.0197,-0.0198,-0.0199,-0.0204,0,0,-0.0203,-0.0203,0,0,0,0,0,0,0,0,-0.0117,-0.012,-0.0147,-0.0147,-0.0148,-0.0158,-0.0153,-0.0172,-0.0164,-0.0158,-0.0165,-0.0165,-0.0186,-0.0188,-0.019,-0.0205,-0.0207,-0.0203,-0.0203,-0.0204,-0.0204,0,0,0,0,0,0,0,-0.0116,-0.0119,-0.0146,-0.0147,-0.0148,-0.0143,-0.0146,-0.0157,-0.0171,-0.0159,-0.0159,-0.0161,-0.0187,-0.0189,-0.0191,-0.0207,-0.0203,-0.0204,-0.0205,-0.0205,-0.0212,-0.0211,0,0,0,0,0,0,-0.0116,-0.0118,-0.0146,-0.0147,-0.0133,-0.0144,-0.0147,-0.0155,-0.0171,-0.0173,-0.0161,-0.0162,-0.0187,-0.0189,-0.0192,-0.0182,-0.0204,-0.0205,-0.0206,-0.0212,-0.0212,-0.0211,0,0,0,0,0,0,-0.0115,-0.0119,-0.0145,-0.0132,-0.0136,-0.0145,-0.0153,-0.0155,-0.0157,-0.0173,-0.0175,-0.0161,-0.0187,-0.019,-0.0193,-0.0184,-0.0206,-0.0207,-0.0213,-0.0212,-0.0212,-0.0172,0,0,0,0,0,0,-0.0114,-0.0118,-0.0121,-0.0133,-0.0136,-0.0144,-0.0153,-0.0155,-0.0158,-0.0159,-0.0174,-0.0177,-0.0187,-0.0191,-0.0194,-0.0186,-0.0208,-0.0214,-0.0213,-0.0212,-0.0174,-0.017,-0.0167,0,0,0,0,0,-0.0113,-0.0114,-0.0121,-0.0124,-0.0141,-0.0143,-0.0145,-0.0151,-0.0158,-0.0154,-0.0162,-0.0177,-0.0187,-0.0191,-0.0195,-0.0187,-0.0214,-0.0213,-0.0212,-0.0176,-0.0171,-0.0167,0,0,0,0,0,0,-0.0094,-0.0115,-0.0124,-0.013,-0.0135,-0.0145,-0.0143,-0.015,-0.0153,-0.0155,-0.0171,-0.0174,-0.0173,-0.0185,-0.019,-0.0186,-0.0203,-0.0202,-0.0174,-0.017,-0.0166,-0.0167,-0.0209,0,0,0,0,0,-0.0093,-0.0101,-0.0117,-0.0119,-0.0123,-0.0133,-0.0135,-0.0141,-0.0147,-0.0149,-0.0158,-0.0167,-0.0171,-0.0174,-0.0182,-0.0181,-0.0204,-0.0178,-0.0174,-0.0171,-0.0174,-0.0203,-0.0203,-0.0207,-0.0207,-0.0207,0,0,-0.0084,-0.0098,-0.0101,-0.0116,-0.0121,-0.0118,-0.0135,-0.0136,-0.0129,-0.0152,-0.0145,-0.0156,-0.0168,-0.0164,-0.0165,-0.0173,-0.0179,-0.0169,-0.0167,-0.0171,-0.0202,-0.0201,-0.0201,-0.0207,-0.0207,-0.0207,0,0,-0.0069,-0.0086,-0.0087,-0.0092,-0.0101,-0.0106,-0.0106,-0.0116,-0.0116,-0.0113,-0.0125,-0.0131,-0.0138,-0.0143,-0.0146,-0.0129,-0.0159,-0.013,-0.0111,-0.0139,-0.0139,-0.014,-0.0158,-0.016,-0.0127,-0.0127,-0.0126,0,-0.0056,-0.0065,-0.0084,-0.0084,-0.0083,-0.0099,-0.0091,-0.0092,-0.0099,-0.0099,-0.0105,-0.0117,-0.0127,-0.0124,-0.0115,-0.0121,-0.0141,-0.0126,-0.0135,-0.0136,-0.0137,-0.0156,-0.0159,-0.0124,-0.0125,-0.0125,-0.0125,0,-0.0043,-0.0048,-0.0047,-0.0054,-0.0053,-0.005,-0.0055,-0.0053,-0.0058,-0.0063,-0.0065,-0.0078,-0.0088,-0.0088,-0.0095,-0.0102,-0.0114,-0.0128,-0.0147,-0.0134,-0.0155,-0.0159,-0.0122,-0.0122,-0.0123,-0.0123,0,0,-0.0018,-0.0035,-0.0033,-0.0034,-0.0039,-0.0036,-0.0024,-0.0021,-0.0017,-0.0025,-0.0023,-0.0029,-0.0046,-0.0052,-0.0064,-0.0084,-0.0103,-0.0106,-0.0109,-0.0126,-0.0161,-0.0119,-0.0119,-0.0122,-0.0123,-0.0123,-0.0168,0,0.0,0.0003,-0.0008,0.0006,0.0008,0.0,0.0013,0.0014,0.001,0.0009,-0.001,-0.0013,-0.0028,-0.0034,-0.0055,-0.0088,-0.0114,-0.0089,-0.017,-0.0172,-0.0138,-0.0123,-0.006,-0.0091,-0.0173,-0.0173,-0.0174,0,0.0019,0.0016,0.0028,0.0027,0.0028,0.0037,0.0047,0.0056,0.005,0.0045,0.0033,0.0014,-0.0002,-0.0026,-0.0081,-0.0065,-0.0113,-0.0144,-0.0147,-0.0126,-0.0137,-0.0119,-0.0096,-0.0163,-0.0181,-0.018,-0.018,0,0.0042,0.0043,0.0051,0.0052,0.0051,0.0059,0.0064,0.0065,0.0077,0.0065,0.007,0.0036,0.0029,-0.0034,-0.0076,-0.0091,-0.0141,-0.0173,-0.0183,-0.0181,-0.0152,-0.0146,-0.0205,-0.0233,-0.0233,-0.0233,-0.0233,0,0.0062,0.0069,0.0061,0.0065,0.0081,0.0076,0.0095,0.0095,0.0101,0.0124,0.0089,0.0109,0.0025,-0.0004,-0.0069,-0.0115,-0.0137,-0.0177,-0.0188,-0.0134,-0.0126,-0.0203,-0.0258,-0.0234,-0.0234,-0.0234,-0.0233,0,0.0085,0.0077,0.0087,0.0087,0.009,0.0103,0.0119,0.0134,0.0137,0.0168,0.0168,0.0157,0.0139,0.0066,-0.0022,-0.0087,-0.0181,-0.0169,-0.0088,-0.0089,-0.0165,-0.022,-0.0306,-0.0355,-0.0202,-0.0201,-0.0201,0,0.0094,0.01,0.0106,0.0115,0.0115,0.0131,0.0146,0.0152,0.0175,0.0216,0.0238,0.0235,0.0266,0.017,0.0071,-0.0028,-0.0132,-0.0081,-0.0101,-0.0154,-0.0225,-0.0272,-0.0312,-0.0052,-0.005,-0.0048,-0.0047,0,0.0114,0.0116,0.0123,0.0142,0.0157,0.0177,0.02,0.0226,0.0253,0.0301,0.0377,0.0411,0.0361,0.0319,0.0183,0.0103,-0.0115,-0.0053,-0.0138,-0.0131,-0.0159,-0.0215,-0.0038,-0.0034,-0.0035,-0.0036,-0.0037,-0.0037,0.0131,0.014,0.0151,0.0171,0.019,0.0224,0.025,0.0302,0.0369,0.0467,0.0496,0.0585,0.0503,0.036,0.0236,0.0043,-0.0014,-0.0036,-0.0104,-0.0152,-0.0178,0.0041,0.0054,0.0053,0.0052,0.0052,0.0051,0,0.0151,0.0159,0.0179,0.02,0.0227,0.0234,0.0287,0.0334,0.0437,0.0563,0.0663,0.0713,0.0597,0.0422,0.0182,0.0017,-0.0078,-0.0087,-0.0153,-0.02,-0.002,0.0011,0.0052,0.0052,0.0052,0.0052,0.0052,0.0052,0.0161,0.0179,0.0186,0.0226,0.0246,0.0286,0.0321,0.0418,0.0512,0.0692,0.0793,0.0862,0.075,0.0313,-0.0007,-0.0093,-0.0258,-0.0245,-0.0379,-0.0255,-0.0256,-0.0257,-0.024,-0.0253,-0.0253,-0.0513,-0.0515,-0.0517]}],[{"header":{"parameterUnit":"m.s-1","parameterCategory":2,"la1":30.2991,"la2":30.254,"lo1":-89.0895,"lo2":-89.0444,"dy":0.0017,"dx":0.0017,"nx":28,"ny":28,"refTime":"2023-10-26T03:00:00:Z","depth":"2","parameterNumber":2,"parameterNumberName":"U-component_of_CURRENTS"},"data":[0,0,0,0,0,0,0,0,0,0,0,0,0,0,0,0,0,0,0,0,0,0,0,0,0,0,0,0,0,0,0,0,0,0,0,0,0,0,0,0,0,0,0,0,0,0,0,0,0,0,0,0,0,0,0,0,0,0,0.1382,0.1382,0,0.1352,0.1352,0.1351,0.1329,0.1329,0.1329,0.1329,0.1299,0.1298,0.1297,0,0,0,0,0,0,0,0,0,0,0,0,0,0.1384,0.1384,0.1382,0.1382,0.1381,0.1352,0.1352,0.1351,0.1329,0.1329,0.1329,0.1329,0.1299,0.1298,0.1297,0,0,0,0,0,0,0,0,0,0,0,0,0,0.137,0.1384,0.1382,0.1368,0.1367,0.1352,0.1352,0.1351,0.1329,0.1329,0.1329,0.1329,0.1299,0.1298,0.1297,0.1291,0,0,0.1293,0.1293,0,0,0,0,0,0,0,0,0.1371,0.137,0.137,0.1369,0.1368,0.1346,0.1341,0.1331,0.1329,0.1341,0.1329,0.1329,0.1316,0.1313,0.1305,0.1289,0.1288,0.1293,0.1292,0.1292,0.1292,0,0,0,0,0,0,0,0.1372,0.1371,0.1368,0.137,0.1369,0.1352,0.135,0.1339,0.1328,0.134,0.1339,0.1339,0.1315,0.1306,0.1304,0.1287,0.1293,0.1292,0.1291,0.1291,0.1306,0.1307,0,0,0,0,0,0,0.1381,0.1372,0.1369,0.1367,0.1371,0.1352,0.135,0.1351,0.1328,0.1325,0.1339,0.1338,0.1308,0.1306,0.1303,0.1322,0.1292,0.1291,0.129,0.1305,0.1306,0.1308,0,0,0,0,0,0,0.1381,0.1381,0.137,0.137,0.1368,0.1353,0.1354,0.1351,0.1348,0.1327,0.1324,0.134,0.1308,0.1305,0.1302,0.1319,0.129,0.1289,0.1304,0.1305,0.1307,0.1342,0,0,0,0,0,0,0.1382,0.1382,0.1384,0.1371,0.1368,0.1369,0.1354,0.135,0.1348,0.1347,0.1327,0.1324,0.1308,0.1304,0.1301,0.1317,0.1288,0.1302,0.1305,0.1306,0.1339,0.1344,0.1349,0,0,0,0,0,0.1382,0.1384,0.1385,0.1384,0.1373,0.1369,0.1366,0.1353,0.1349,0.135,0.1339,0.1324,0.1316,0.1304,0.13,0.1316,0.1301,0.1304,0.1306,0.1337,0.1343,0.1349,0,0,0,0,0,0,0.1379,0.1382,0.1382,0.1383,0.1382,0.1366,0.1363,0.1359,0.135,0.1348,0.133,0.1326,0.1335,0.1322,0.131,0.133,0.131,0.1312,0.1335,0.134,0.1345,0.1347,0.1287,0,0,0,0,0,0.1383,0.1387,0.1387,0.1387,0.1389,0.1379,0.1375,0.137,0.1361,0.1357,0.1346,0.1339,0.1341,0.1337,0.1334,0.1337,0.1342,0.1349,0.1354,0.1358,0.1359,0.1386,0.1394,0.1316,0.1316,0.1316,0,0,0.1378,0.1382,0.1382,0.1387,0.1382,0.1384,0.1376,0.1373,0.1376,0.1355,0.1354,0.1354,0.1347,0.1355,0.1358,0.1345,0.1386,0.1361,0.1364,0.1363,0.139,0.1397,0.1404,0.1317,0.1317,0.1317,0,0,0.1372,0.138,0.1382,0.1386,0.1389,0.1387,0.1391,0.1386,0.1386,0.1387,0.1382,0.1394,0.1383,0.1389,0.1389,0.1419,0.1413,0.1421,0.1441,0.1468,0.1474,0.148,0.1507,0.1515,0.142,0.142,0.142,0,0.1368,0.1372,0.1381,0.1385,0.1387,0.1392,0.1394,0.1397,0.1392,0.1398,0.1391,0.1405,0.1401,0.1422,0.1435,0.143,0.1443,0.1417,0.1474,0.1479,0.1485,0.1511,0.1519,0.1422,0.1422,0.1422,0.1421,0,0.1363,0.1368,0.137,0.1381,0.1387,0.1388,0.14,0.1409,0.1413,0.1418,0.1442,0.1443,0.1451,0.1461,0.1453,0.1494,0.1491,0.1479,0.1457,0.1495,0.152,0.1528,0.1425,0.1424,0.1424,0.1423,0,0,0.134,0.1364,0.1361,0.1368,0.1385,0.1386,0.1405,0.1423,0.1438,0.1448,0.147,0.1487,0.1495,0.1498,0.1502,0.1526,0.158,0.1519,0.1519,0.1543,0.1644,0.1644,0.1652,0.1578,0.1579,0.158,0.1651,0,0.1331,0.1339,0.1355,0.136,0.1364,0.1387,0.1404,0.1425,0.1443,0.1469,0.1493,0.1514,0.1507,0.152,0.1545,0.1574,0.1601,0.1562,0.1607,0.1608,0.1601,0.1662,0.1483,0.1531,0.1658,0.166,0.1661,0,0.1313,0.1324,0.1329,0.1356,0.136,0.1369,0.1402,0.1419,0.1465,0.1485,0.1516,0.1535,0.1582,0.1567,0.1634,0.161,0.163,0.1649,0.1652,0.1643,0.1623,0.1513,0.154,0.1674,0.1673,0.1672,0.1671,0,0.128,0.1302,0.1306,0.1312,0.1346,0.1358,0.1379,0.1421,0.1442,0.1498,0.1524,0.1574,0.1606,0.1642,0.1685,0.1663,0.1759,0.1731,0.175,0.175,0.1602,0.1587,0.1777,0.1777,0.1777,0.1777,0.1777,0,0.1257,0.1256,0.1292,0.1291,0.1304,0.1338,0.136,0.1391,0.1445,0.1478,0.1528,0.1569,0.1627,0.1684,0.1709,0.1766,0.178,0.1771,0.1775,0.1612,0.1597,0.1716,0.1708,0.1779,0.1779,0.1778,0.1778,0,0.121,0.1233,0.1238,0.1275,0.1285,0.1292,0.134,0.1362,0.142,0.1468,0.1491,0.158,0.1667,0.1724,0.18,0.1801,0.1851,0.1862,0.1674,0.1655,0.1816,0.1809,0.1892,0.1893,0.1894,0.1894,0.1895,0,0.1185,0.1185,0.1215,0.1221,0.1235,0.1257,0.1276,0.1337,0.1367,0.1473,0.1497,0.1604,0.1666,0.1789,0.1811,0.1867,0.1895,0.1739,0.1667,0.1835,0.1831,0.1823,0.1815,0.1484,0.1481,0.1478,0.1476,0,0.1142,0.1154,0.1162,0.1176,0.1191,0.1212,0.1248,0.1266,0.1348,0.1399,0.1481,0.1542,0.1658,0.165,0.1737,0.1738,0.1717,0.1694,0.1917,0.1493,0.1459,0.1452,0.1456,0.1455,0.1457,0.1458,0.146,0.146,0.1108,0.1104,0.1121,0.1128,0.1146,0.1162,0.1161,0.1221,0.1264,0.1341,0.1427,0.1484,0.1513,0.1577,0.1544,0.1525,0.1649,0.1565,0.1568,0.1575,0.1526,0.1496,0.1489,0.1491,0.1493,0.1495,0.1497,0,0.1066,0.1067,0.1075,0.1081,0.1084,0.1109,0.1137,0.1149,0.1184,0.1278,0.1346,0.1283,0.1283,0.1324,0.1252,0.1266,0.1203,0.122,0.1106,0.1129,0.115,0.1075,0.0921,0.0919,0.0917,0.0916,0,0,0.1044,0.1033,0.1037,0.102,0.1023,0.1012,0.1014,0.105,0.1105,0.1152,0.1176,0.129,0.1312,0.1121,0.1079,0.0989,0.1051,0.0948,0.141,0.1301,0.132,0.1353,0.1266,0,0,0,0,0]},{"header":{"parameterUnit":"m.s-1","parameterCategory":2,"la1":30.2991,"la2":30.254,"lo1":-89.0895,"lo2":-89.0444,"dy":0.0017,"dx":0.0017,"nx":28,"ny":28,"refTime":"2023-10-26T03:00:00:Z","depth":"2","parameterNumber":3,"parameterNumberName":"V-component_of_CURRENTS"},"data":[0,0,0,0,0,0,0,0,0,0,0,0,0,0,0,0,0,0,0,0,0,0,0,0,0,0,0,0,0,0,0,0,0,0,0,0,0,0,0,0,0,0,0,0,0,0,0,0,0,0,0,0,0,0,0,0,0,0,-0.0165,-0.0165,0,-0.0178,-0.0179,-0.0179,-0.0188,-0.0188,-0.0188,-0.0188,-0.022,-0.0221,-0.0222,0,0,0,0,0,0,0,0,0,0,0,0,0,-0.0126,-0.0127,-0.0165,-0.0165,-0.0165,-0.0178,-0.0179,-0.0179,-0.0188,-0.0188,-0.0188,-0.0188,-0.022,-0.0221,-0.0222,0,0,0,0,0,0,0,0,0,0,0,0,0,-0.0141,-0.0127,-0.0164,-0.0171,-0.0172,-0.0178,-0.0179,-0.0179,-0.0188,-0.0188,-0.0188,-0.0188,-0.022,-0.0221,-0.0222,-0.0227,0,0,-0.0226,-0.0226,0,0,0,0,0,0,0,0,-0.0141,-0.0143,-0.017,-0.0171,-0.0172,-0.0182,-0.0177,-0.0196,-0.0188,-0.0181,-0.0188,-0.0188,-0.0209,-0.0211,-0.0213,-0.0229,-0.023,-0.0226,-0.0226,-0.0227,-0.0227,0,0,0,0,0,0,0,-0.0139,-0.0142,-0.017,-0.017,-0.0171,-0.0167,-0.0169,-0.018,-0.0195,-0.0182,-0.0183,-0.0184,-0.021,-0.0212,-0.0214,-0.023,-0.0226,-0.0227,-0.0227,-0.0228,-0.0235,-0.0235,0,0,0,0,0,0,-0.0139,-0.0141,-0.0169,-0.017,-0.0156,-0.0167,-0.017,-0.0178,-0.0194,-0.0197,-0.0184,-0.0185,-0.021,-0.0212,-0.0215,-0.0205,-0.0227,-0.0228,-0.0229,-0.0236,-0.0235,-0.0235,0,0,0,0,0,0,-0.0138,-0.0142,-0.0169,-0.0156,-0.0159,-0.0168,-0.0177,-0.0178,-0.018,-0.0196,-0.0199,-0.0185,-0.021,-0.0213,-0.0216,-0.0207,-0.0228,-0.023,-0.0236,-0.0236,-0.0235,-0.0196,0,0,0,0,0,0,-0.0137,-0.0142,-0.0144,-0.0156,-0.016,-0.0168,-0.0177,-0.0178,-0.0181,-0.0182,-0.0197,-0.02,-0.021,-0.0214,-0.0217,-0.0209,-0.0231,-0.0237,-0.0236,-0.0235,-0.0198,-0.0194,-0.0191,0,0,0,0,0,-0.0136,-0.0137,-0.0145,-0.0148,-0.0164,-0.0167,-0.0168,-0.0175,-0.0181,-0.0178,-0.0185,-0.02,-0.021,-0.0214,-0.0218,-0.021,-0.0238,-0.0236,-0.0235,-0.02,-0.0195,-0.0191,0,0,0,0,0,0,-0.0117,-0.0139,-0.0147,-0.0154,-0.0159,-0.0169,-0.0166,-0.0174,-0.0177,-0.0178,-0.0194,-0.0197,-0.0196,-0.0208,-0.0213,-0.0209,-0.0226,-0.0226,-0.0198,-0.0194,-0.019,-0.019,-0.0231,0,0,0,0,0,-0.0116,-0.0125,-0.014,-0.0143,-0.0147,-0.0157,-0.0159,-0.0164,-0.0171,-0.0172,-0.0182,-0.019,-0.0195,-0.0198,-0.0205,-0.0204,-0.0227,-0.0202,-0.0198,-0.0195,-0.0197,-0.0225,-0.0225,-0.0231,-0.0231,-0.0231,0,0,-0.0107,-0.0121,-0.0125,-0.014,-0.0145,-0.0142,-0.0158,-0.0159,-0.0153,-0.0176,-0.0169,-0.018,-0.0192,-0.0188,-0.0189,-0.0196,-0.0202,-0.0193,-0.019,-0.0195,-0.0224,-0.0224,-0.0223,-0.023,-0.023,-0.023,0,0,-0.0092,-0.0109,-0.011,-0.0115,-0.0125,-0.013,-0.013,-0.014,-0.014,-0.0137,-0.0149,-0.0155,-0.0162,-0.0167,-0.017,-0.0153,-0.0183,-0.0154,-0.0135,-0.0162,-0.0162,-0.0163,-0.018,-0.0182,-0.0151,-0.0151,-0.0151,0,-0.0079,-0.0089,-0.0107,-0.0108,-0.0107,-0.0123,-0.0115,-0.0116,-0.0123,-0.0123,-0.013,-0.0141,-0.0152,-0.0148,-0.0139,-0.0145,-0.0164,-0.015,-0.0158,-0.0159,-0.016,-0.0178,-0.0181,-0.0149,-0.0149,-0.0149,-0.015,0,-0.0066,-0.0072,-0.0071,-0.0078,-0.0077,-0.0074,-0.008,-0.0077,-0.0082,-0.0088,-0.0089,-0.0102,-0.0111,-0.0112,-0.0119,-0.0125,-0.0137,-0.0152,-0.017,-0.0157,-0.0177,-0.018,-0.0146,-0.0147,-0.0148,-0.0148,0,0,-0.0041,-0.0059,-0.0057,-0.0058,-0.0063,-0.0061,-0.0048,-0.0045,-0.004,-0.0049,-0.0046,-0.0052,-0.0069,-0.0074,-0.0087,-0.0106,-0.0124,-0.0129,-0.0131,-0.0147,-0.018,-0.0139,-0.0139,-0.0144,-0.0144,-0.0145,-0.0188,0,-0.0023,-0.0021,-0.0032,-0.0018,-0.0016,-0.0024,-0.0011,-0.001,-0.0013,-0.0014,-0.0031,-0.0035,-0.0051,-0.0056,-0.0077,-0.011,-0.0134,-0.0111,-0.019,-0.0192,-0.0158,-0.0142,-0.0149,-0.0183,-0.0192,-0.0192,-0.0193,0,-0.0005,-0.0008,0.0003,0.0003,0.0004,0.0013,0.0024,0.0033,0.0029,0.0024,0.0013,-0.0005,-0.002,-0.0045,-0.01,-0.0085,-0.0132,-0.0163,-0.0166,-0.0146,-0.0158,-0.02,-0.019,-0.0199,-0.0199,-0.0198,-0.0198,0,0.0019,0.0019,0.0028,0.0028,0.0028,0.0036,0.0041,0.0044,0.0056,0.0046,0.0052,0.0019,0.0013,-0.005,-0.0093,-0.0108,-0.0157,-0.0189,-0.02,-0.0197,-0.0227,-0.0225,-0.0248,-0.0248,-0.0248,-0.0247,-0.0247,0,0.0039,0.0046,0.0038,0.0042,0.0059,0.0054,0.0073,0.0074,0.0082,0.0107,0.0072,0.0092,0.0009,-0.0019,-0.0085,-0.013,-0.0151,-0.0192,-0.0204,-0.021,-0.0207,-0.0243,-0.0242,-0.0249,-0.0249,-0.0248,-0.0248,0,0.0062,0.0054,0.0064,0.0065,0.0068,0.0081,0.0098,0.0114,0.0118,0.0151,0.0152,0.0142,0.0124,0.0052,-0.0036,-0.0101,-0.0164,-0.0183,-0.0171,-0.0179,-0.0198,-0.0194,-0.0217,-0.0216,-0.0215,-0.0215,-0.0214,0,0.0071,0.0077,0.0083,0.0093,0.0093,0.0109,0.0126,0.0132,0.0156,0.02,0.0223,0.022,0.0248,0.0152,0.0028,-0.0078,-0.0103,-0.0165,-0.0196,-0.0185,-0.0195,-0.0192,-0.019,-0.0227,-0.0226,-0.0226,-0.0225,0,0.0091,0.0093,0.01,0.012,0.0136,0.0156,0.018,0.0208,0.0236,0.0282,0.0358,0.0389,0.0315,0.0221,0.0075,-0.0003,-0.0147,-0.0158,-0.0163,-0.0214,-0.0192,-0.0201,-0.02,-0.0222,-0.0222,-0.0222,-0.0222,-0.0223,0.0108,0.0118,0.0128,0.0149,0.0169,0.0203,0.023,0.0273,0.0337,0.0393,0.0433,0.0447,0.0349,0.0156,0.0061,-0.0081,-0.0088,-0.0173,-0.0176,-0.0179,-0.0153,-0.0128,-0.0142,-0.0142,-0.0142,-0.0142,-0.0142,0,0.0125,0.0136,0.0156,0.0179,0.0202,0.0213,0.0267,0.0294,0.0381,0.0413,0.0471,0.0366,0.0284,0.0169,-0.0038,-0.0134,-0.0167,-0.0163,-0.02,-0.0203,-0.0205,-0.0183,-0.0179,-0.0179,-0.0179,-0.0179,0,0,0.0133,0.015,0.0157,0.0196,0.022,0.0251,0.0285,0.0341,0.036,0.04,0.0382,0.0369,0.0263,0.0104,-0.0002,-0.0102,-0.0138,-0.012,-0.0084,-0.0118,-0.0119,-0.0204,-0.017,0,0,0,0,0]}],[{"header":{"parameterUnit":"m.s-1","parameterCategory":2,"la1":30.2991,"la2":30.254,"lo1":-89.0895,"lo2":-89.0444,"dy":0.0017,"dx":0.0017,"nx":28,"ny":28,"refTime":"2023-10-26T03:00:00:Z","depth":"4","parameterNumber":2,"parameterNumberName":"U-component_of_CURRENTS"},"data":[0,0,0,0,0,0,0,0,0,0,0,0,0,0,0,0,0,0,0,0,0,0,0,0,0,0,0,0,0,0,0,0,0,0,0,0,0,0,0,0,0,0,0,0,0,0,0,0,0,0,0,0,0,0,0,0,0,0,0.0916,0.0917,0,0.0984,0.0985,0.0986,0.1032,0.1033,0.1033,0.1034,0.108,0.1081,0.1082,0,0,0,0,0,0,0,0,0,0,0,0,0,0.086,0.086,0.0916,0.0917,0.0918,0.0984,0.0985,0.0986,0.1032,0.1033,0.1034,0.1034,0.108,0.1081,0.1082,0,0,0,0,0,0,0,0,0,0,0,0,0,0.09,0.086,0.0916,0.095,0.0954,0.0984,0.0985,0.0986,0.1032,0.1033,0.1034,0.1034,0.108,0.1081,0.1082,0.1075,0,0,0.1086,0.1086,0,0,0,0,0,0,0,0,0.0898,0.0902,0.0944,0.0948,0.0952,0.1002,0.0982,0.1015,0.1032,0.1001,0.1034,0.1035,0.1052,0.1056,0.1065,0.1077,0.1079,0.1086,0.1086,0.1087,0.1087,0,0,0,0,0,0,0,0.0895,0.09,0.0942,0.0945,0.095,0.0974,0.098,0.0989,0.1021,0.1004,0.1008,0.1017,0.1054,0.1064,0.1067,0.108,0.1086,0.1087,0.1088,0.1088,0.115,0.1151,0,0,0,0,0,0,0.0887,0.0897,0.094,0.0944,0.0928,0.0974,0.0981,0.0984,0.1021,0.1028,0.1017,0.1019,0.1062,0.1065,0.1069,0.1116,0.1087,0.1088,0.1089,0.1149,0.115,0.1151,0,0,0,0,0,0,0.0885,0.0889,0.0937,0.0923,0.0931,0.0974,0.0978,0.0985,0.1017,0.1031,0.1038,0.1043,0.1063,0.1067,0.1097,0.1116,0.1089,0.109,0.1148,0.1149,0.1151,0.1176,0,0,0,0,0,0,0.0883,0.0888,0.0897,0.0923,0.0932,0.0968,0.0977,0.0986,0.1021,0.1026,0.1056,0.106,0.1063,0.1095,0.1098,0.1117,0.1091,0.1147,0.1148,0.115,0.1174,0.1178,0.1181,0,0,0,0,0,0.0881,0.0889,0.0897,0.0903,0.0939,0.0969,0.0976,0.1008,0.1022,0.1039,0.1061,0.106,0.1109,0.1097,0.11,0.112,0.1146,0.1148,0.115,0.1172,0.1177,0.1181,0,0,0,0,0,0,0.0875,0.0895,0.0905,0.0921,0.0949,0.0978,0.1001,0.1018,0.105,0.106,0.107,0.1076,0.111,0.1111,0.1098,0.1143,0.1127,0.113,0.1143,0.1148,0.1152,0.1152,0.1092,0,0,0,0,0,0.0875,0.0886,0.091,0.0928,0.0942,0.0974,0.0994,0.1015,0.1042,0.1058,0.1078,0.1099,0.1117,0.113,0.1146,0.1168,0.1174,0.1183,0.1187,0.119,0.1194,0.1215,0.1221,0.1158,0.1158,0.1158,0,0,0.0881,0.0893,0.0902,0.0928,0.0953,0.0975,0.0988,0.1025,0.1046,0.1056,0.1096,0.1114,0.1127,0.1156,0.1171,0.1161,0.1214,0.1193,0.1196,0.1197,0.1217,0.1223,0.1229,0.1159,0.1159,0.1159,0,0,0.0893,0.0907,0.092,0.0941,0.0978,0.0993,0.1007,0.1045,0.1067,0.1102,0.1116,0.1146,0.1175,0.1188,0.1197,0.123,0.1234,0.1239,0.1258,0.1279,0.1284,0.1289,0.1312,0.1319,0.124,0.124,0.124,0,0.0901,0.0916,0.0932,0.0951,0.0971,0.1001,0.1024,0.1047,0.1092,0.1108,0.1121,0.1174,0.1189,0.1217,0.1236,0.1238,0.1254,0.1239,0.1283,0.1288,0.1292,0.1315,0.1322,0.1241,0.1241,0.1241,0.1241,0,0.0916,0.0937,0.095,0.0976,0.0999,0.1027,0.1055,0.1082,0.1112,0.1134,0.1179,0.1204,0.1235,0.1247,0.1256,0.1294,0.1298,0.1286,0.127,0.13,0.1322,0.1329,0.1243,0.1243,0.1242,0.1242,0,0,0.0911,0.0951,0.0959,0.0974,0.1016,0.1033,0.1067,0.1101,0.1124,0.1168,0.1201,0.1244,0.1264,0.1276,0.1291,0.1315,0.1366,0.1321,0.1322,0.1342,0.1422,0.1325,0.1323,0.1366,0.1367,0.1368,0.1429,0,0.0922,0.0953,0.0973,0.1009,0.1026,0.1058,0.1082,0.1117,0.1151,0.1188,0.1222,0.1261,0.1271,0.1297,0.1323,0.136,0.1384,0.1351,0.1393,0.1394,0.1301,0.1327,0.1371,0.1433,0.1435,0.1436,0.1437,0,0.0927,0.0947,0.0982,0.1018,0.1029,0.1054,0.1095,0.1123,0.1173,0.1201,0.1244,0.1275,0.1329,0.1328,0.14,0.1382,0.1408,0.1428,0.1431,0.1333,0.1308,0.1396,0.1449,0.1448,0.1447,0.1446,0.1445,0,0.0904,0.095,0.0976,0.0991,0.1036,0.1059,0.1086,0.1132,0.1157,0.1217,0.1248,0.1303,0.1346,0.1386,0.1433,0.143,0.1501,0.1493,0.1426,0.142,0.1479,0.1473,0.1533,0.1533,0.1533,0.1533,0.1533,0,0.0894,0.0917,0.097,0.0983,0.101,0.105,0.1083,0.1115,0.1169,0.1194,0.1257,0.128,0.1366,0.1412,0.1445,0.1452,0.1508,0.1433,0.1426,0.1489,0.1484,0.1484,0.1477,0.1535,0.1535,0.1534,0.1534,0,0.0863,0.09,0.0929,0.0982,0.1,0.1021,0.1076,0.1095,0.1156,0.1193,0.1218,0.1291,0.1348,0.1412,0.1481,0.1457,0.1477,0.1461,0.1532,0.1528,0.1386,0.1381,0.1402,0.1399,0.1396,0.1394,0.1392,0,0.0847,0.0862,0.092,0.0935,0.0962,0.1,0.102,0.1081,0.1095,0.1177,0.1182,0.1267,0.1307,0.1328,0.1397,0.1446,0.1431,0.1434,0.1404,0.138,0.1372,0.137,0.1368,0.1388,0.1388,0.1387,0.1386,0,0.0815,0.0846,0.0869,0.0899,0.0926,0.0941,0.0974,0.0974,0.1036,0.1113,0.1122,0.1159,0.1215,0.1267,0.1311,0.1338,0.1429,0.1407,0.1413,0.1385,0.1364,0.1358,0.1359,0.1378,0.1379,0.138,0.138,0,0.0794,0.08,0.0835,0.0851,0.0882,0.0867,0.0887,0.09,0.0924,0.1013,0.101,0.1102,0.1185,0.1209,0.1243,0.1269,0.1264,0.1232,0.1247,0.1257,0.1182,0.1133,0.1071,0,0,0,0,0,0.0766,0.0766,0.0781,0.0788,0.0814,0.083,0.085,0.087,0.093,0.0912,0.0959,0.1002,0.1057,0.11,0.1105,0.1195,0.1274,0.1195,0.1244,0.1329,0.1339,0.1264,0,0,0,0,0,0,0.0745,0.0763,0.0763,0.0734,0.0733,0.0743,0.0753,0.0788,0.0772,0.0848,0.088,0.0958,0.1026,0.1062,0.1096,0.1114,0.1126,0.1261,0.1258,0.1323,0.1332,0.134,0.1267,0,0,0,0,0]},{"header":{"parameterUnit":"m.s-1","parameterCategory":2,"la1":30.2991,"la2":30.254,"lo1":-89.0895,"lo2":-89.0444,"dy":0.0017,"dx":0.0017,"nx":28,"ny":28,"refTime":"2023-10-26T03:00:00:Z","depth":"4","parameterNumber":3,"parameterNumberName":"V-component_of_CURRENTS"},"data":[0,0,0,0,0,0,0,0,0,0,0,0,0,0,0,0,0,0,0,0,0,0,0,0,0,0,0,0,0,0,0,0,0,0,0,0,0,0,0,0,0,0,0,0,0,0,0,0,0,0,0,0,0,0,0,0,0,0,-0.0128,-0.0129,0,-0.0148,-0.0149,-0.0149,-0.0155,-0.0155,-0.0155,-0.0155,-0.0158,-0.0158,-0.0159,0,0,0,0,0,0,0,0,0,0,0,0,0,-0.01,-0.0101,-0.0128,-0.0129,-0.0129,-0.0148,-0.0149,-0.0149,-0.0155,-0.0155,-0.0155,-0.0155,-0.0158,-0.0158,-0.0159,0,0,0,0,0,0,0,0,0,0,0,0,0,-0.0115,-0.0101,-0.0128,-0.0135,-0.0136,-0.0148,-0.0149,-0.0149,-0.0155,-0.0155,-0.0155,-0.0155,-0.0158,-0.0158,-0.0159,-0.016,0,0,-0.0159,-0.0159,0,0,0,0,0,0,0,0,-0.0114,-0.0116,-0.0134,-0.0135,-0.0136,-0.015,-0.014,-0.0152,-0.0155,-0.0147,-0.0155,-0.0155,-0.0155,-0.0155,-0.0158,-0.016,-0.016,-0.0159,-0.0159,-0.0159,-0.0159,0,0,0,0,0,0,0,-0.0113,-0.0115,-0.0135,-0.0134,-0.0135,-0.0139,-0.0141,-0.0142,-0.015,-0.0148,-0.0149,-0.0152,-0.0155,-0.0158,-0.0158,-0.016,-0.0159,-0.0159,-0.0159,-0.0159,-0.017,-0.0171,0,0,0,0,0,0,-0.0112,-0.0114,-0.0135,-0.0136,-0.0126,-0.014,-0.0142,-0.0145,-0.015,-0.0151,-0.0152,-0.0153,-0.0158,-0.0158,-0.0158,-0.0158,-0.0159,-0.0159,-0.0159,-0.017,-0.017,-0.0171,0,0,0,0,0,0,-0.0111,-0.0114,-0.0134,-0.0126,-0.0129,-0.014,-0.0144,-0.0145,-0.0153,-0.0154,-0.0154,-0.0159,-0.0158,-0.0158,-0.0162,-0.0159,-0.0159,-0.0159,-0.017,-0.017,-0.0171,-0.016,0,0,0,0,0,0,-0.0111,-0.0113,-0.0116,-0.0126,-0.013,-0.0143,-0.0144,-0.0146,-0.0155,-0.0156,-0.0159,-0.0159,-0.0158,-0.0161,-0.0162,-0.0159,-0.016,-0.017,-0.017,-0.017,-0.016,-0.016,-0.0159,0,0,0,0,0,-0.0109,-0.0112,-0.0116,-0.0119,-0.0133,-0.0143,-0.0146,-0.0153,-0.0155,-0.0159,-0.0161,-0.0159,-0.0164,-0.0162,-0.0162,-0.0159,-0.0169,-0.017,-0.017,-0.016,-0.016,-0.016,0,0,0,0,0,0,-0.0099,-0.0113,-0.0118,-0.0124,-0.0135,-0.0145,-0.015,-0.0156,-0.0161,-0.0162,-0.0162,-0.0162,-0.0165,-0.0166,-0.0163,-0.0165,-0.0167,-0.0167,-0.0159,-0.0159,-0.0158,-0.0139,-0.016,0,0,0,0,0,-0.0099,-0.0106,-0.0119,-0.0124,-0.0131,-0.0142,-0.0148,-0.0153,-0.016,-0.0162,-0.0165,-0.0167,-0.0167,-0.0166,-0.0169,-0.0169,-0.016,-0.0168,-0.0168,-0.0168,-0.0153,-0.0136,-0.0132,-0.0172,-0.0172,-0.0172,0,0,-0.0096,-0.0106,-0.0108,-0.0123,-0.0132,-0.0137,-0.0145,-0.0156,-0.0154,-0.0161,-0.0161,-0.0168,-0.0168,-0.0167,-0.0168,-0.0167,-0.0156,-0.0168,-0.0168,-0.0153,-0.0136,-0.0132,-0.0128,-0.0173,-0.0173,-0.0172,0,0,-0.0094,-0.0103,-0.0109,-0.0118,-0.0134,-0.0137,-0.0142,-0.0155,-0.0156,-0.0161,-0.0163,-0.0164,-0.0171,-0.0163,-0.0161,-0.0162,-0.0157,-0.0171,-0.015,-0.0134,-0.013,-0.0127,-0.0124,-0.012,-0.0168,-0.0168,-0.0168,0,-0.009,-0.0098,-0.0112,-0.012,-0.0122,-0.0137,-0.0138,-0.0142,-0.0153,-0.0142,-0.016,-0.0151,-0.0164,-0.0139,-0.0149,-0.0158,-0.0155,-0.015,-0.0132,-0.0128,-0.0125,-0.0122,-0.0118,-0.0168,-0.0168,-0.0168,-0.0168,0,-0.0092,-0.0098,-0.0102,-0.0113,-0.0117,-0.0122,-0.0128,-0.0127,-0.0133,-0.013,-0.0117,-0.0129,-0.0118,-0.013,-0.0144,-0.0122,-0.0131,-0.0135,-0.0129,-0.012,-0.0119,-0.0114,-0.0167,-0.0167,-0.0168,-0.0168,0,0,-0.0081,-0.01,-0.0101,-0.0098,-0.0112,-0.011,-0.0105,-0.0093,-0.0069,-0.0086,-0.005,-0.0072,-0.0073,-0.0072,-0.0084,-0.0079,-0.0071,-0.0101,-0.01,-0.009,-0.0045,-0.0083,-0.0082,-0.0073,-0.0072,-0.0071,-0.0059,0,-0.0078,-0.0084,-0.0093,-0.0085,-0.0085,-0.0087,-0.0071,-0.006,-0.0051,-0.0021,-0.0023,-0.0005,-0.0051,-0.0045,-0.0047,-0.0057,-0.0058,-0.0075,-0.006,-0.006,-0.0088,-0.0077,-0.0068,-0.0055,-0.0054,-0.0054,-0.0053,0,-0.0076,-0.0078,-0.0075,-0.0058,-0.0056,-0.0049,-0.001,0.0,0.0037,0.0046,0.0065,0.0065,0.0075,0.0032,0.0026,0.0016,-0.0016,-0.0031,-0.0031,-0.0061,-0.0089,-0.0064,-0.0045,-0.0046,-0.0047,-0.0047,-0.0048,0,-0.0057,-0.0059,-0.0051,-0.005,-0.0039,-0.0023,-0.0009,0.0024,0.0053,0.0095,0.0123,0.0136,0.0144,0.0121,0.0065,0.0051,0.0059,0.004,-0.0021,-0.0025,0.0002,-0.0002,0.0037,0.0037,0.0037,0.0037,0.0037,0,-0.0047,-0.0039,-0.004,-0.0036,-0.0004,-0.0002,0.0045,0.0064,0.0112,0.0158,0.0158,0.0192,0.0164,0.0158,0.0104,0.0054,0.0087,-0.0009,-0.0018,0.0002,-0.0002,0.0004,-0.0,0.0037,0.0037,0.0037,0.0037,0,-0.0032,-0.0038,-0.0024,-0.0009,0.0,0.0023,0.0068,0.0108,0.0143,0.0206,0.0221,0.0243,0.0226,0.019,0.0157,0.01,0.0061,0.0028,0.0053,0.0044,-0.0043,-0.0047,-0.0021,-0.0022,-0.0023,-0.0024,-0.0024,0,-0.0027,-0.0023,-0.0006,0.0007,0.0012,0.0047,0.0078,0.0118,0.0162,0.0231,0.0265,0.0273,0.027,0.021,0.0154,0.0074,0.0041,0.0021,-0.0015,-0.0034,-0.0046,-0.0048,-0.005,-0.0026,-0.0026,-0.0026,-0.0026,0,-0.0015,-0.0012,-0.0001,0.0024,0.005,0.0088,0.0132,0.0169,0.0225,0.026,0.0302,0.0279,0.026,0.0202,0.0136,0.0071,0.0043,0.0011,0.0012,-0.0022,-0.004,-0.0051,-0.0052,-0.003,-0.0029,-0.0029,-0.0029,0,-0.0004,0.0006,0.0017,0.0041,0.0074,0.0116,0.0143,0.019,0.0234,0.0305,0.0313,0.0299,0.0295,0.02,0.0144,0.0077,0.0046,0.0012,0.0012,0.0015,0.0007,-0.001,0.0011,0,0,0,0,0,0.0004,0.0012,0.0035,0.0061,0.0095,0.0111,0.0175,0.0204,0.026,0.0287,0.0302,0.0281,0.0207,0.0185,0.011,0.0108,0.0026,0.0015,-0.0015,-0.0048,-0.0044,-0.0064,0,0,0,0,0,0,0.0008,0.0025,0.0033,0.0071,0.0088,0.0132,0.0168,0.0208,0.0226,0.027,0.0234,0.0235,0.0164,0.024,0.0097,0.0081,0.0045,-0.0012,-0.0014,-0.005,-0.0046,-0.0043,-0.0063,0,0,0,0,0]}]]